Time,TemperatureF,DewpointF,PressureIn,WindDirection,WindDirectionDegrees,WindSpeedMPH,WindSpeedGustMPH,Humidity,HourlyPrecipIn,Conditions,Clouds,dailyrainin,SolarRadiationWatts/m^2,SoftwareType,DateUTC
2013-03-21 00:00:00,57.8,52.3,29.96,ESE,113,3.0,3.0,82,0.00,CLR,,0.00,0.0,WeatherDisplay:10.37,2013-03-21 07:00:00,
2013-03-21 00:05:00,57.7,52.6,29.96,East,96,3.5,3.5,83,0.00,CLR,,0.00,0.0,WeatherDisplay:10.37,2013-03-21 07:05:00,
2013-03-21 00:10:00,57.6,52.5,29.95,East,96,1.1,0.0,83,0.00,CLR,,0.00,0.0,WeatherDisplay:10.37,2013-03-21 07:10:00,
2013-03-21 00:15:00,57.4,52.3,29.95,East,96,2.3,2.3,83,0.00,CLR,,0.00,0.0,WeatherDisplay:10.37,2013-03-21 07:15:00,
2013-03-21 00:20:00,57.3,52.2,29.95,East,96,2.3,2.3,83,0.00,CLR,,0.00,0.0,WeatherDisplay:10.37,2013-03-21 07:20:00,
2013-03-21 00:25:00,57.3,52.2,29.95,East,96,1.1,1.1,83,0.00,CLR,,0.00,0.0,WeatherDisplay:10.37,2013-03-21 07:25:00,
2013-03-21 00:30:00,57.3,52.2,29.95,SE,127,3.5,3.5,83,0.00,CLR,,0.00,0.0,WeatherDisplay:10.37,2013-03-21 07:30:00,
2013-03-21 00:36:00,57.3,52.2,29.95,SE,132,2.3,2.3,83,0.00,CLR,,0.00,0.0,WeatherDisplay:10.37,2013-03-21 07:36:00,
2013-03-21 00:41:00,57.3,52.2,29.95,SE,132,0.0,0.0,83,0.00,CLR,,0.00,0.0,WeatherDisplay:10.37,2013-03-21 07:41:00,
2013-03-21 00:46:00,57.3,52.2,29.95,SE,132,1.0,1.0,83,0.00,CLR,,0.00,0.0,WeatherDisplay:10.37,2013-03-21 07:46:00,
2013-03-21 00:51:00,57.2,52.1,29.95,SE,132,0.0,0.0,83,0.00,CLR,,0.00,0.0,WeatherDisplay:10.37,2013-03-21 07:51:00,
2013-03-21 00:56:00,57.2,52.4,29.95,SE,132,1.1,1.1,84,0.00,CLR,,0.00,0.0,WeatherDisplay:10.37,2013-03-21 07:56:00,
2013-03-21 01:01:00,57.1,52.3,29.95,SE,132,1.1,1.1,84,0.00,CLR,,0.00,0.0,WeatherDisplay:10.37,2013-03-21 08:01:00,
2013-03-21 01:06:00,57.1,52.3,29.95,SE,132,2.3,2.3,84,0.00,CLR,,0.00,0.0,WeatherDisplay:10.37,2013-03-21 08:06:00,
2013-03-21 01:11:00,57.1,52.3,29.94,SE,133,4.0,4.0,84,0.00,CLR,,0.00,0.0,WeatherDisplay:10.37,2013-03-21 08:11:00,
2013-03-21 01:16:00,57.2,52.4,29.94,SE,128,4.0,4.0,84,0.00,CLR,,0.00,0.0,WeatherDisplay:10.37,2013-03-21 08:16:00,
2013-03-21 01:21:00,57.2,52.1,29.94,SE,134,3.5,3.5,83,0.00,CLR,,0.00,0.0,WeatherDisplay:10.37,2013-03-21 08:21:00,
2013-03-21 01:26:00,57.2,52.1,29.94,SE,143,3.5,3.5,83,0.00,CLR,,0.00,0.0,WeatherDisplay:10.37,2013-03-21 08:26:00,
2013-03-21 01:31:00,57.2,52.1,29.94,ESE,121,4.0,4.0,83,0.00,CLR,,0.00,0.0,WeatherDisplay:10.37,2013-03-21 08:31:00,
2013-03-21 01:36:00,57.2,52.1,29.94,SE,145,3.5,3.5,83,0.00,CLR,,0.00,0.0,WeatherDisplay:10.37,2013-03-21 08:36:00,
2013-03-21 01:41:00,57.1,52.0,29.94,SE,146,1.1,1.1,83,0.00,CLR,,0.00,0.0,WeatherDisplay:10.37,2013-03-21 08:41:00,
2013-03-21 01:46:00,57.1,52.0,29.94,SE,145,0.0,0.0,83,0.00,CLR,,0.00,0.0,WeatherDisplay:10.37,2013-03-21 08:46:00,
2013-03-21 01:51:00,57.0,51.9,29.94,SE,136,3.0,3.0,83,0.00,CLR,,0.00,0.0,WeatherDisplay:10.37,2013-03-21 08:51:00,
2013-03-21 01:56:00,56.9,52.1,29.94,SE,130,2.3,2.3,84,0.00,CLR,,0.00,0.0,WeatherDisplay:10.37,2013-03-21 08:56:00,
2013-03-21 02:01:00,56.7,51.9,29.94,SE,127,2.3,2.3,84,0.00,CLR,,0.00,0.0,WeatherDisplay:10.37,2013-03-21 09:01:00,
2013-03-21 02:06:00,56.6,51.8,29.94,SE,125,1.1,1.1,84,0.00,CLR,,0.00,0.0,WeatherDisplay:10.37,2013-03-21 09:06:00,
2013-03-21 02:11:00,56.5,51.7,29.94,SE,125,1.1,0.0,84,0.00,CLR,,0.00,0.0,WeatherDisplay:10.37,2013-03-21 09:11:00,
2013-03-21 02:16:00,56.3,51.8,29.95,ESE,123,2.3,2.3,85,0.00,CLR,,0.00,0.0,WeatherDisplay:10.37,2013-03-21 09:16:00,
2013-03-21 02:21:00,56.2,51.7,29.94,ESE,123,1.1,1.1,85,0.00,CLR,,0.00,0.0,WeatherDisplay:10.37,2013-03-21 09:21:00,
2013-03-21 02:26:00,56.1,51.7,29.94,ESE,123,2.3,2.3,85,0.00,CLR,,0.00,0.0,WeatherDisplay:10.37,2013-03-21 09:26:00,
2013-03-21 02:31:00,56.0,51.6,29.94,ESE,123,2.3,2.3,85,0.00,CLR,,0.00,0.0,WeatherDisplay:10.37,2013-03-21 09:31:00,
2013-03-21 02:36:00,55.9,51.5,29.94,ESE,123,1.1,1.1,85,0.00,CLR,,0.00,0.0,WeatherDisplay:10.37,2013-03-21 09:36:00,
2013-03-21 02:41:00,55.8,51.7,29.94,ESE,123,2.3,0.0,86,0.00,CLR,,0.00,0.0,WeatherDisplay:10.37,2013-03-21 09:41:00,
2013-03-21 02:46:00,55.8,51.7,29.94,ESE,117,3.0,3.0,86,0.00,CLR,,0.00,0.0,WeatherDisplay:10.37,2013-03-21 09:46:00,
2013-03-21 02:51:00,55.7,51.6,29.94,East,92,3.5,3.5,86,0.00,CLR,,0.00,0.0,WeatherDisplay:10.37,2013-03-21 09:51:00,
2013-03-21 02:56:00,55.6,51.5,29.93,East,92,1.1,1.1,86,0.00,CLR,,0.00,0.0,WeatherDisplay:10.37,2013-03-21 09:56:00,
2013-03-21 03:01:00,55.7,51.6,29.93,ESE,105,1.1,1.1,86,0.00,CLR,,0.00,0.0,WeatherDisplay:10.37,2013-03-21 10:01:00,
2013-03-21 03:06:00,55.7,51.6,29.93,ESE,105,2.3,2.3,86,0.00,CLR,,0.00,0.0,WeatherDisplay:10.37,2013-03-21 10:06:00,
2013-03-21 03:11:00,55.6,51.5,29.92,ESE,105,2.3,2.3,86,0.00,CLR,,0.00,0.0,WeatherDisplay:10.37,2013-03-21 10:11:00,
2013-03-21 03:16:00,55.7,51.9,29.92,ESE,105,2.3,2.3,87,0.00,CLR,,0.00,0.0,WeatherDisplay:10.37,2013-03-21 10:16:00,
2013-03-21 03:21:00,55.7,51.9,29.92,ENE,78,3.5,3.5,87,0.00,CLR,,0.00,0.0,WeatherDisplay:10.37,2013-03-21 10:21:00,
2013-03-21 03:26:00,55.5,51.4,29.92,ENE,78,0.0,0.0,86,0.00,CLR,,0.00,0.0,WeatherDisplay:10.37,2013-03-21 10:26:00,
2013-03-21 03:31:00,55.5,51.7,29.92,ENE,78,2.3,0.0,87,0.00,CLR,,0.00,0.0,WeatherDisplay:10.37,2013-03-21 10:31:00,
2013-03-21 03:36:00,55.4,51.6,29.92,ENE,78,0.0,0.0,87,0.00,CLR,,0.00,0.0,WeatherDisplay:10.37,2013-03-21 10:36:00,
2013-03-21 03:41:00,55.3,51.5,29.92,ENE,78,1.0,1.0,87,0.00,CLR,,0.00,0.0,WeatherDisplay:10.37,2013-03-21 10:41:00,
2013-03-21 03:46:00,55.1,51.0,29.91,ENE,78,1.1,1.1,86,0.00,CLR,,0.00,0.0,WeatherDisplay:10.37,2013-03-21 10:46:00,
2013-03-21 03:51:00,55.1,51.3,29.91,ESE,106,1.1,0.0,87,0.00,CLR,,0.00,0.0,WeatherDisplay:10.37,2013-03-21 10:51:00,
2013-03-21 03:56:00,55.0,51.2,29.91,ESE,106,0.0,0.0,87,0.00,CLR,,0.00,0.0,WeatherDisplay:10.37,2013-03-21 10:56:00,
2013-03-21 04:01:00,54.9,51.1,29.91,ESE,106,0.0,0.0,87,0.00,CLR,,0.00,0.0,WeatherDisplay:10.37,2013-03-21 11:01:00,
2013-03-21 04:06:00,54.8,51.0,29.91,ESE,106,1.1,1.1,87,0.00,CLR,,0.00,0.0,WeatherDisplay:10.37,2013-03-21 11:06:00,
2013-03-21 04:11:00,54.6,50.8,29.90,ESE,106,0.0,0.0,87,0.00,CLR,,0.00,0.0,WeatherDisplay:10.37,2013-03-21 11:11:00,
2013-03-21 04:16:00,54.3,50.5,29.91,East,98,2.3,2.3,87,0.00,CLR,,0.00,0.0,WeatherDisplay:10.37,2013-03-21 11:16:00,
2013-03-21 04:21:00,54.1,50.3,29.91,East,98,1.1,1.1,87,0.00,CLR,,0.00,0.0,WeatherDisplay:10.37,2013-03-21 11:21:00,
2013-03-21 04:26:00,54.0,50.2,29.90,East,98,0.0,0.0,87,0.00,CLR,,0.00,0.0,WeatherDisplay:10.37,2013-03-21 11:26:00,
2013-03-21 04:32:00,53.9,50.4,29.90,East,98,2.3,2.3,88,0.00,CLR,,0.00,0.0,WeatherDisplay:10.37,2013-03-21 11:32:00,
2013-03-21 04:37:00,53.8,50.3,29.90,East,98,0.0,0.0,88,0.00,CLR,,0.00,0.0,WeatherDisplay:10.37,2013-03-21 11:37:00,
2013-03-21 04:42:00,53.8,50.3,29.90,East,98,1.1,1.1,88,0.00,CLR,,0.00,0.0,WeatherDisplay:10.37,2013-03-21 11:42:00,
2013-03-21 04:47:00,53.7,50.2,29.91,East,98,1.0,1.0,88,0.00,CLR,,0.00,0.0,WeatherDisplay:10.37,2013-03-21 11:47:00,
2013-03-21 04:52:00,53.6,50.1,29.90,East,98,0.0,0.0,88,0.00,CLR,,0.00,0.0,WeatherDisplay:10.37,2013-03-21 11:52:00,
2013-03-21 04:57:00,53.7,50.5,29.90,East,98,0.0,0.0,89,0.00,CLR,,0.00,0.0,WeatherDisplay:10.37,2013-03-21 11:57:00,
2013-03-21 05:02:00,53.8,50.6,29.90,East,98,0.0,0.0,89,0.00,CLR,,0.00,0.0,WeatherDisplay:10.37,2013-03-21 12:02:00,
2013-03-21 05:07:00,53.6,50.1,29.90,East,98,0.0,0.0,88,0.00,CLR,,0.00,0.0,WeatherDisplay:10.37,2013-03-21 12:07:00,
2013-03-21 05:12:00,53.5,50.0,29.90,East,98,0.0,0.0,88,0.00,CLR,,0.00,0.0,WeatherDisplay:10.37,2013-03-21 12:12:00,
2013-03-21 05:18:00,53.3,49.8,29.90,East,98,0.0,0.0,88,0.00,CLR,,0.00,0.0,WeatherDisplay:10.37,2013-03-21 12:18:00,
2013-03-21 05:23:00,53.3,50.1,29.90,East,98,0.0,0.0,89,0.00,CLR,,0.00,0.0,WeatherDisplay:10.37,2013-03-21 12:23:00,
2013-03-21 05:28:00,53.2,50.0,29.90,East,98,0.0,0.0,89,0.00,CLR,,0.00,0.0,WeatherDisplay:10.37,2013-03-21 12:28:00,
2013-03-21 05:33:00,53.1,49.9,29.90,East,98,0.0,0.0,89,0.00,CLR,,0.00,0.0,WeatherDisplay:10.37,2013-03-21 12:33:00,
2013-03-21 05:38:00,53.1,49.9,29.89,East,98,2.3,2.3,89,0.00,CLR,,0.00,0.0,WeatherDisplay:10.37,2013-03-21 12:38:00,
2013-03-21 05:43:00,53.1,49.9,29.89,East,98,2.3,2.3,89,0.00,CLR,,0.00,0.0,WeatherDisplay:10.37,2013-03-21 12:43:00,
2013-03-21 05:48:00,53.1,49.9,29.90,East,98,1.1,1.1,89,0.00,CLR,,0.00,0.0,WeatherDisplay:10.37,2013-03-21 12:48:00,
2013-03-21 05:53:00,53.2,50.3,29.90,East,98,2.0,2.0,90,0.00,CLR,,0.00,0.0,WeatherDisplay:10.37,2013-03-21 12:53:00,
2013-03-21 05:58:00,53.1,49.9,29.90,East,98,1.1,1.1,89,0.00,CLR,,0.00,0.0,WeatherDisplay:10.37,2013-03-21 12:58:00,
2013-03-21 06:03:00,53.0,49.8,29.90,East,98,0.0,0.0,89,0.00,CLR,,0.00,0.0,WeatherDisplay:10.37,2013-03-21 13:03:00,
2013-03-21 06:08:00,52.9,50.0,29.89,East,98,0.0,0.0,90,0.00,CLR,,0.00,0.0,WeatherDisplay:10.37,2013-03-21 13:08:00,
2013-03-21 06:13:00,52.8,49.9,29.89,East,98,0.0,0.0,90,0.00,CLR,,0.00,0.0,WeatherDisplay:10.37,2013-03-21 13:13:00,
2013-03-21 06:18:00,52.7,49.5,29.89,East,98,0.0,0.0,89,0.00,CLR,,0.00,0.0,WeatherDisplay:10.37,2013-03-21 13:18:00,
2013-03-21 06:23:00,52.7,49.8,29.90,East,98,1.1,0.0,90,0.00,CLR,,0.00,0.0,WeatherDisplay:10.37,2013-03-21 13:23:00,
2013-03-21 06:28:00,52.6,49.8,29.90,East,98,1.0,1.0,90,0.00,CLR,,0.00,0.0,WeatherDisplay:10.37,2013-03-21 13:28:00,
2013-03-21 06:33:00,52.5,49.7,29.90,East,98,0.0,0.0,90,0.00,CLR,,0.00,0.0,WeatherDisplay:10.37,2013-03-21 13:33:00,
2013-03-21 06:38:00,52.5,49.7,29.90,East,98,0.0,0.0,90,0.00,CLR,,0.00,0.0,WeatherDisplay:10.37,2013-03-21 13:38:00,
2013-03-21 06:43:00,52.5,49.7,29.90,East,98,0.0,0.0,90,0.00,CLR,,0.00,0.0,WeatherDisplay:10.37,2013-03-21 13:43:00,
2013-03-21 06:48:00,52.4,49.6,29.90,East,98,0.0,0.0,90,0.00,CLR,,0.00,0.0,WeatherDisplay:10.37,2013-03-21 13:48:00,
2013-03-21 06:53:00,52.4,49.6,29.91,East,98,0.0,0.0,90,0.00,CLR,,0.00,0.0,WeatherDisplay:10.37,2013-03-21 13:53:00,
2013-03-21 06:58:00,52.3,49.5,29.91,East,98,1.1,1.1,90,0.00,CLR,,0.00,0.0,WeatherDisplay:10.37,2013-03-21 13:58:00,
2013-03-21 07:03:00,52.2,49.4,29.90,East,98,1.1,1.1,90,0.00,BKN,,0.00,7.0,WeatherDisplay:10.37,2013-03-21 14:03:00,
2013-03-21 07:08:00,52.1,49.3,29.90,East,98,0.0,0.0,90,0.00,BKN,,0.00,11.0,WeatherDisplay:10.37,2013-03-21 14:08:00,
2013-03-21 07:14:00,52.1,49.3,29.90,East,98,1.1,1.1,90,0.00,BKN,,0.00,14.0,WeatherDisplay:10.37,2013-03-21 14:14:00,
2013-03-21 07:19:00,52.0,49.2,29.90,East,94,3.5,3.5,90,0.00,BKN,,0.00,18.0,WeatherDisplay:10.37,2013-03-21 14:19:00,
2013-03-21 07:24:00,52.1,49.6,29.90,East,94,1.1,1.1,91,0.00,BKN,,0.00,21.0,WeatherDisplay:10.37,2013-03-21 14:24:00,
2013-03-21 07:29:00,52.1,49.6,29.91,East,94,0.0,0.0,91,0.00,BKN,,0.00,25.0,WeatherDisplay:10.37,2013-03-21 14:29:00,
2013-03-21 07:34:00,52.1,49.6,29.91,East,94,2.0,2.0,91,0.00,BKN,,0.00,26.0,WeatherDisplay:10.37,2013-03-21 14:34:00,
2013-03-21 07:39:00,52.1,49.6,29.91,East,94,1.1,0.0,91,0.00,BKN,,0.00,33.0,WeatherDisplay:10.37,2013-03-21 14:39:00,
2013-03-21 07:44:00,52.1,49.6,29.91,East,94,0.0,0.0,91,0.00,BKN,,0.00,37.0,WeatherDisplay:10.37,2013-03-21 14:44:00,
2013-03-21 07:49:00,52.2,49.7,29.91,East,94,0.0,0.0,91,0.00,BKN,,0.00,44.0,WeatherDisplay:10.37,2013-03-21 14:49:00,
2013-03-21 07:54:00,52.3,49.8,29.91,East,94,0.0,0.0,91,0.00,BKN,,0.00,70.0,WeatherDisplay:10.37,2013-03-21 14:54:00,
2013-03-21 07:59:00,52.6,50.0,29.92,East,94,0.0,0.0,91,0.00,BKN,,0.00,74.0,WeatherDisplay:10.37,2013-03-21 14:59:00,
2013-03-21 08:04:00,52.9,50.3,29.92,East,94,0.0,0.0,91,0.00,BKN,,0.00,86.0,WeatherDisplay:10.37,2013-03-21 15:04:00,
2013-03-21 08:09:00,53.3,50.7,29.92,East,92,2.3,2.3,91,0.00,BKN,,0.00,91.0,WeatherDisplay:10.37,2013-03-21 15:09:00,
2013-03-21 08:14:00,53.7,50.5,29.92,East,86,3.5,3.5,89,0.00,SCT,,0.00,137.0,WeatherDisplay:10.37,2013-03-21 15:14:00,
2013-03-21 08:19:00,54.3,51.1,29.92,East,80,3.5,3.5,89,0.00,FEW,,0.00,185.0,WeatherDisplay:10.37,2013-03-21 15:19:00,
2013-03-21 08:24:00,55.0,51.5,29.92,East,83,3.0,3.0,88,0.00,CLR,,0.00,214.0,WeatherDisplay:10.37,2013-03-21 15:24:00,
2013-03-21 08:29:00,55.8,52.0,29.92,East,82,2.3,2.3,87,0.00,CLR,,0.00,262.0,WeatherDisplay:10.37,2013-03-21 15:29:00,
2013-03-21 08:34:00,56.6,52.1,29.93,ESE,119,5.0,5.0,85,0.00,CLR,,0.00,223.0,WeatherDisplay:10.37,2013-03-21 15:34:00,
2013-03-21 08:39:00,57.2,52.1,29.92,SE,125,5.8,5.8,83,0.00,SCT,,0.00,207.0,WeatherDisplay:10.37,2013-03-21 15:39:00,
2013-03-21 08:44:00,57.5,52.0,29.93,SE,138,6.0,6.0,82,0.00,SCT,,0.00,181.0,WeatherDisplay:10.37,2013-03-21 15:44:00,
2013-03-21 08:49:00,57.6,52.1,29.92,SE,140,6.0,6.0,82,0.00,CLR,,0.00,299.0,WeatherDisplay:10.37,2013-03-21 15:49:00,
2013-03-21 08:54:00,57.8,52.7,29.92,SE,136,8.0,8.0,83,0.00,CLR,,0.00,352.0,WeatherDisplay:10.37,2013-03-21 15:54:00,
2013-03-21 08:59:00,58.1,53.0,29.92,SE,131,6.9,6.9,83,0.00,CLR,,0.00,306.0,WeatherDisplay:10.37,2013-03-21 15:59:00,
2013-03-21 09:04:00,58.3,52.8,29.93,SE,146,5.8,5.8,82,0.00,CLR,,0.00,396.0,WeatherDisplay:10.37,2013-03-21 16:04:00,
2013-03-21 09:09:00,58.6,53.1,29.93,ESE,105,4.6,4.6,82,0.00,CLR,,0.00,418.0,WeatherDisplay:10.37,2013-03-21 16:09:00,
2013-03-21 09:14:00,59.0,53.2,29.93,ESE,116,4.6,4.6,81,0.00,CLR,,0.00,439.0,WeatherDisplay:10.37,2013-03-21 16:14:00,
2013-03-21 09:19:00,59.4,52.9,29.92,ESE,117,5.8,5.8,79,0.00,CLR,,0.00,455.0,WeatherDisplay:10.37,2013-03-21 16:19:00,
2013-03-21 09:24:00,59.2,53.0,29.93,SE,134,6.9,6.9,80,0.00,CLR,,0.00,436.0,WeatherDisplay:10.37,2013-03-21 16:24:00,
2013-03-21 09:29:00,59.4,53.2,29.93,SE,134,7.0,7.0,80,0.00,CLR,,0.00,441.0,WeatherDisplay:10.37,2013-03-21 16:29:00,
2013-03-21 09:34:00,59.7,53.5,29.93,ESE,104,4.6,4.6,80,0.00,CLR,,0.00,483.0,WeatherDisplay:10.37,2013-03-21 16:34:00,
2013-03-21 09:39:00,59.9,53.4,29.93,SE,138,8.1,8.1,79,0.00,CLR,,0.00,510.0,WeatherDisplay:10.37,2013-03-21 16:39:00,
2013-03-21 09:44:00,60.2,53.3,29.93,SE,137,8.1,8.1,78,0.00,CLR,,0.00,524.0,WeatherDisplay:10.37,2013-03-21 16:44:00,
2013-03-21 09:49:00,60.5,54.0,29.93,SE,134,5.0,5.0,79,0.00,CLR,,0.00,541.0,WeatherDisplay:10.37,2013-03-21 16:49:00,
2013-03-21 09:54:00,60.7,53.8,29.93,SE,130,4.6,4.6,78,0.00,CLR,,0.00,564.0,WeatherDisplay:10.37,2013-03-21 16:54:00,
2013-03-21 09:59:00,61.0,53.7,29.93,SE,134,5.8,5.8,77,0.00,CLR,,0.00,603.0,WeatherDisplay:10.37,2013-03-21 16:59:00,
2013-03-21 10:04:00,60.9,54.0,29.93,SSW,200,8.1,8.1,78,0.00,CLR,,0.00,589.0,WeatherDisplay:10.37,2013-03-21 17:04:00,
2013-03-21 10:09:00,61.3,53.7,29.93,East,100,6.0,6.0,76,0.00,CLR,,0.00,563.0,WeatherDisplay:10.37,2013-03-21 17:09:00,
2013-03-21 10:14:00,61.8,54.2,29.93,South,185,5.0,5.0,76,0.00,CLR,,0.00,589.0,WeatherDisplay:10.37,2013-03-21 17:14:00,
2013-03-21 10:19:00,62.0,54.0,29.92,SSE,150,4.6,4.6,75,0.00,CLR,,0.00,656.0,WeatherDisplay:10.37,2013-03-21 17:19:00,
2013-03-21 10:24:00,62.3,53.9,29.92,ESE,119,6.0,6.0,74,0.00,CLR,,0.00,663.0,WeatherDisplay:10.37,2013-03-21 17:24:00,
2013-03-21 10:29:00,62.5,54.1,29.92,SE,142,4.6,4.6,74,0.00,CLR,,0.00,682.0,WeatherDisplay:10.37,2013-03-21 17:29:00,
2013-03-21 10:34:00,62.6,53.8,29.92,East,88,4.6,4.6,73,0.00,SCT,,0.00,287.0,WeatherDisplay:10.37,2013-03-21 17:34:00,
2013-03-21 10:39:00,62.8,54.0,29.92,SSE,159,8.1,8.1,73,0.00,CLR,,0.00,666.0,WeatherDisplay:10.37,2013-03-21 17:39:00,
2013-03-21 10:44:00,62.8,53.6,29.92,SSE,155,4.6,4.6,72,0.00,CLR,,0.00,677.0,WeatherDisplay:10.37,2013-03-21 17:44:00,
2013-03-21 10:49:00,63.2,54.0,29.92,South,186,2.3,2.3,72,0.00,CLR,,0.00,698.0,WeatherDisplay:10.37,2013-03-21 17:49:00,
2013-03-21 10:54:00,63.8,54.2,29.92,SE,143,5.8,5.8,71,0.00,CLR,,0.00,710.0,WeatherDisplay:10.37,2013-03-21 17:54:00,
2013-03-21 10:59:00,63.9,53.9,29.92,South,173,5.8,5.8,70,0.00,CLR,,0.00,722.0,WeatherDisplay:10.37,2013-03-21 17:59:00,
2013-03-21 11:04:00,63.8,53.8,29.92,ESE,109,2.3,2.3,70,0.00,CLR,,0.00,721.0,WeatherDisplay:10.37,2013-03-21 18:04:00,
2013-03-21 11:09:00,64.4,54.0,29.92,SSE,165,6.0,6.0,69,0.00,CLR,,0.00,717.0,WeatherDisplay:10.37,2013-03-21 18:09:00,
2013-03-21 11:14:00,64.3,53.1,29.92,SSW,194,4.6,4.6,67,0.00,CLR,,0.00,745.0,WeatherDisplay:10.37,2013-03-21 18:14:00,
2013-03-21 11:19:00,64.5,53.7,29.92,South,176,4.6,4.6,68,0.00,CLR,,0.00,745.0,WeatherDisplay:10.37,2013-03-21 18:19:00,
2013-03-21 11:24:00,64.9,53.7,29.92,South,180,6.0,6.0,67,0.00,CLR,,0.00,749.0,WeatherDisplay:10.37,2013-03-21 18:24:00,
2013-03-21 11:29:00,64.9,53.7,29.92,South,169,10.0,10.0,67,0.00,CLR,,0.00,765.0,WeatherDisplay:10.37,2013-03-21 18:29:00,
2013-03-21 11:34:00,64.9,53.3,29.92,SSW,198,4.6,4.6,66,0.00,CLR,,0.00,775.0,WeatherDisplay:10.37,2013-03-21 18:34:00,
2013-03-21 11:39:00,65.3,53.2,29.92,SSE,150,5.0,5.0,65,0.00,CLR,,0.00,782.0,WeatherDisplay:10.37,2013-03-21 18:39:00,
2013-03-21 11:44:00,65.5,53.4,29.92,WSW,241,4.6,4.6,65,0.00,CLR,,0.00,786.0,WeatherDisplay:10.37,2013-03-21 18:44:00,
2013-03-21 11:49:00,66.1,54.0,29.91,SSE,156,6.0,6.0,65,0.00,CLR,,0.00,786.0,WeatherDisplay:10.37,2013-03-21 18:49:00,
2013-03-21 11:54:00,66.3,53.8,29.91,SSW,201,8.1,8.1,64,0.00,CLR,,0.00,791.0,WeatherDisplay:10.37,2013-03-21 18:54:00,
2013-03-21 11:59:00,66.0,53.0,29.91,South,178,5.8,5.8,63,0.00,CLR,,0.00,795.0,WeatherDisplay:10.37,2013-03-21 18:59:00,
2013-03-21 12:04:00,66.4,54.3,29.91,SSW,212,8.0,8.0,65,0.00,CLR,,0.00,800.0,WeatherDisplay:10.37,2013-03-21 19:04:00,
2013-03-21 12:09:00,66.2,54.1,29.91,SSW,200,10.0,10.0,65,0.00,CLR,,0.00,796.0,WeatherDisplay:10.37,2013-03-21 19:09:00,
2013-03-21 12:14:00,66.4,54.3,29.91,SSE,166,10.4,10.4,65,0.00,CLR,,0.00,805.0,WeatherDisplay:10.37,2013-03-21 19:14:00,
2013-03-21 12:19:00,66.0,54.3,29.91,WSW,242,10.4,10.4,66,0.00,CLR,,0.00,796.0,WeatherDisplay:10.37,2013-03-21 19:19:00,
2013-03-21 12:24:00,66.3,54.6,29.90,SSW,206,6.9,6.9,66,0.00,CLR,,0.00,807.0,WeatherDisplay:10.37,2013-03-21 19:24:00,
2013-03-21 12:29:00,66.8,54.7,29.90,SSW,197,6.9,6.9,65,0.00,CLR,,0.00,805.0,WeatherDisplay:10.37,2013-03-21 19:29:00,
2013-03-21 12:34:00,67.0,54.4,29.90,SSW,198,6.9,6.9,64,0.00,CLR,,0.00,784.0,WeatherDisplay:10.37,2013-03-21 19:34:00,
2013-03-21 12:39:00,67.0,54.4,29.90,SSW,208,9.2,9.2,64,0.00,CLR,,0.00,830.0,WeatherDisplay:10.37,2013-03-21 19:39:00,
2013-03-21 12:44:00,66.7,54.1,29.90,SSW,198,9.0,9.0,64,0.00,CLR,,0.00,816.0,WeatherDisplay:10.37,2013-03-21 19:44:00,
2013-03-21 12:49:00,66.8,54.2,29.90,SW,219,4.6,4.6,64,0.00,CLR,,0.00,802.0,WeatherDisplay:10.37,2013-03-21 19:49:00,
2013-03-21 12:54:00,67.4,54.4,29.89,South,173,6.0,6.0,63,0.00,CLR,,0.00,819.0,WeatherDisplay:10.37,2013-03-21 19:54:00,
2013-03-21 12:59:00,67.6,54.1,29.89,SSW,208,4.6,4.6,62,0.00,CLR,,0.00,816.0,WeatherDisplay:10.37,2013-03-21 19:59:00,
2013-03-21 13:04:00,67.9,54.4,29.89,SSW,209,7.0,7.0,62,0.00,CLR,,0.00,819.0,WeatherDisplay:10.37,2013-03-21 20:04:00,
2013-03-21 13:09:00,68.0,54.5,29.89,SSW,196,9.2,9.2,62,0.00,CLR,,0.00,805.0,WeatherDisplay:10.37,2013-03-21 20:09:00,
2013-03-21 13:14:00,67.7,54.2,29.89,SSW,194,9.2,9.2,62,0.00,CLR,,0.00,816.0,WeatherDisplay:10.37,2013-03-21 20:14:00,
2013-03-21 13:19:00,67.3,54.3,29.89,South,170,9.2,9.2,63,0.00,CLR,,0.00,810.0,WeatherDisplay:10.37,2013-03-21 20:19:00,
2013-03-21 13:24:00,67.4,53.9,29.88,SSE,161,4.6,4.6,62,0.00,CLR,,0.00,802.0,WeatherDisplay:10.37,2013-03-21 20:24:00,
2013-03-21 13:29:00,67.9,54.0,29.88,West,280,6.0,6.0,61,0.00,CLR,,0.00,805.0,WeatherDisplay:10.37,2013-03-21 20:29:00,
2013-03-21 13:34:00,67.8,54.3,29.88,SSW,198,8.0,8.0,62,0.00,CLR,,0.00,807.0,WeatherDisplay:10.37,2013-03-21 20:34:00,
2013-03-21 13:39:00,68.3,53.9,29.88,South,176,3.5,3.5,60,0.00,CLR,,0.00,802.0,WeatherDisplay:10.37,2013-03-21 20:39:00,
2013-03-21 13:44:00,68.8,53.9,29.87,SSW,202,6.0,6.0,59,0.00,CLR,,0.00,798.0,WeatherDisplay:10.37,2013-03-21 20:44:00,
2013-03-21 13:49:00,69.2,53.8,29.87,SSW,208,5.8,5.8,58,0.00,CLR,,0.00,788.0,WeatherDisplay:10.37,2013-03-21 20:49:00,
2013-03-21 13:54:00,69.6,53.7,29.87,WSW,240,3.5,3.5,57,0.00,CLR,,0.00,782.0,WeatherDisplay:10.37,2013-03-21 20:54:00,
2013-03-21 13:59:00,70.2,54.2,29.87,South,191,4.0,4.0,57,0.00,CLR,,0.00,780.0,WeatherDisplay:10.37,2013-03-21 20:59:00,
2013-03-21 14:04:00,70.6,54.1,29.86,WSW,254,3.5,3.5,56,0.00,FEW,,0.00,570.0,WeatherDisplay:10.37,2013-03-21 21:04:00,
2013-03-21 14:09:00,71.0,54.5,29.86,West,264,9.2,9.2,56,0.00,CLR,,0.00,782.0,WeatherDisplay:10.37,2013-03-21 21:09:00,
2013-03-21 14:14:00,71.1,54.6,29.85,WSW,258,4.0,4.0,56,0.00,CLR,,0.00,782.0,WeatherDisplay:10.37,2013-03-21 21:14:00,
2013-03-21 14:19:00,70.9,54.4,29.85,WNW,284,5.8,5.8,56,0.00,CLR,,0.00,795.0,WeatherDisplay:10.37,2013-03-21 21:19:00,
2013-03-21 14:24:00,71.2,54.7,29.85,SSW,207,8.1,8.1,56,0.00,CLR,,0.00,788.0,WeatherDisplay:10.37,2013-03-21 21:24:00,
2013-03-21 14:29:00,71.0,55.5,29.85,South,173,11.5,11.5,58,0.00,FEW,,0.00,624.0,WeatherDisplay:10.37,2013-03-21 21:29:00,
2013-03-21 14:34:00,70.5,56.4,29.85,SSW,207,11.5,11.5,61,0.00,CLR,,0.00,729.0,WeatherDisplay:10.37,2013-03-21 21:34:00,
2013-03-21 14:39:00,70.1,55.6,29.85,SSE,150,11.5,11.5,60,0.00,FEW,,0.00,605.0,WeatherDisplay:10.37,2013-03-21 21:39:00,
2013-03-21 14:44:00,69.4,55.8,29.84,SSE,167,12.7,12.7,62,0.00,SCT,,0.00,446.0,WeatherDisplay:10.37,2013-03-21 21:44:00,
2013-03-21 14:49:00,69.4,55.8,29.84,South,189,11.5,11.5,62,0.00,FEW,,0.00,573.0,WeatherDisplay:10.37,2013-03-21 21:49:00,
2013-03-21 14:54:00,69.5,55.9,29.84,SSE,158,11.5,11.5,62,0.00,SCT,,0.00,448.0,WeatherDisplay:10.37,2013-03-21 21:54:00,
2013-03-21 14:59:00,69.6,56.0,29.84,SSW,202,9.2,9.2,62,0.00,CLR,,0.00,612.0,WeatherDisplay:10.37,2013-03-21 21:59:00,
2013-03-21 15:04:00,69.8,55.7,29.84,South,183,10.4,10.4,61,0.00,CLR,,0.00,719.0,WeatherDisplay:10.37,2013-03-21 22:04:00,
2013-03-21 15:09:00,70.1,56.0,29.83,SSE,168,8.0,8.0,61,0.00,FEW,,0.00,635.0,WeatherDisplay:10.37,2013-03-21 22:09:00,
2013-03-21 15:14:00,70.1,55.6,29.83,South,169,10.4,10.4,60,0.00,CLR,,0.00,626.0,WeatherDisplay:10.37,2013-03-21 22:14:00,
2013-03-21 15:19:00,69.4,55.4,29.83,SSW,197,8.1,8.1,61,0.00,CLR,,0.00,652.0,WeatherDisplay:10.37,2013-03-21 22:19:00,
2013-03-21 15:24:00,69.1,55.1,29.83,SSE,159,10.4,10.4,61,0.00,CLR,,0.00,628.0,WeatherDisplay:10.37,2013-03-21 22:24:00,
2013-03-21 15:29:00,68.9,54.9,29.83,SSE,163,10.0,10.0,61,0.00,CLR,,0.00,615.0,WeatherDisplay:10.37,2013-03-21 22:29:00,
2013-03-21 15:34:00,69.4,54.4,29.83,South,184,9.2,9.2,59,0.00,CLR,,0.00,603.0,WeatherDisplay:10.37,2013-03-21 22:34:00,
2013-03-21 15:39:00,69.6,54.2,29.83,ESE,122,11.5,11.5,58,0.00,CLR,,0.00,589.0,WeatherDisplay:10.37,2013-03-21 22:39:00,
2013-03-21 15:44:00,70.0,54.1,29.82,SSW,193,7.0,7.0,57,0.00,CLR,,0.00,575.0,WeatherDisplay:10.37,2013-03-21 22:44:00,
2013-03-21 15:49:00,70.1,53.2,29.82,SSW,192,7.0,7.0,55,0.00,CLR,,0.00,566.0,WeatherDisplay:10.37,2013-03-21 22:49:00,
2013-03-21 15:54:00,70.4,53.0,29.82,SW,234,7.0,7.0,54,0.00,CLR,,0.00,550.0,WeatherDisplay:10.37,2013-03-21 22:54:00,
2013-03-21 15:59:00,70.5,53.1,29.82,SSW,205,9.0,9.0,54,0.00,CLR,,0.00,538.0,WeatherDisplay:10.37,2013-03-21 22:59:00,
2013-03-21 16:04:00,70.6,53.1,29.82,SSE,165,9.2,9.2,54,0.00,CLR,,0.00,522.0,WeatherDisplay:10.37,2013-03-21 23:04:00,
2013-03-21 16:09:00,70.6,53.1,29.82,SSW,198,9.2,9.2,54,0.00,CLR,,0.00,510.0,WeatherDisplay:10.37,2013-03-21 23:09:00,
2013-03-21 16:14:00,70.6,53.1,29.82,SSW,212,9.0,9.0,54,0.00,CLR,,0.00,496.0,WeatherDisplay:10.37,2013-03-21 23:14:00,
2013-03-21 16:19:00,70.3,52.9,29.82,South,189,10.0,10.0,54,0.00,CLR,,0.00,483.0,WeatherDisplay:10.37,2013-03-21 23:19:00,
2013-03-21 16:24:00,69.5,52.1,29.82,SSE,158,9.2,9.2,54,0.00,CLR,,0.00,462.0,WeatherDisplay:10.37,2013-03-21 23:24:00,
2013-03-21 16:29:00,69.0,51.2,29.82,South,175,11.5,11.5,53,0.00,CLR,,0.00,446.0,WeatherDisplay:10.37,2013-03-21 23:29:00,
2013-03-21 16:34:00,68.5,52.7,29.81,South,175,12.7,12.7,57,0.00,CLR,,0.00,436.0,WeatherDisplay:10.37,2013-03-21 23:34:00,
2013-03-21 16:39:00,68.7,52.4,29.81,SSE,150,8.1,8.1,56,0.00,CLR,,0.00,418.0,WeatherDisplay:10.37,2013-03-21 23:39:00,
2013-03-21 16:44:00,68.9,51.6,29.81,SSE,161,10.0,10.0,54,0.00,CLR,,0.00,403.0,WeatherDisplay:10.37,2013-03-21 23:44:00,
2013-03-21 16:49:00,68.7,51.9,29.81,SSW,201,9.2,9.2,55,0.00,CLR,,0.00,387.0,WeatherDisplay:10.37,2013-03-21 23:49:00,
2013-03-21 16:55:00,68.8,52.0,29.81,SSE,154,10.4,10.4,55,0.00,CLR,,0.00,371.0,WeatherDisplay:10.37,2013-03-21 23:55:00,
2013-03-21 17:00:00,68.9,51.6,29.81,SSE,167,10.0,10.0,54,0.00,CLR,,0.00,353.0,WeatherDisplay:10.37,2013-03-22 00:00:00,
2013-03-21 17:05:00,68.8,52.0,29.81,SSW,194,10.4,10.4,55,0.00,CLR,,0.00,341.0,WeatherDisplay:10.37,2013-03-22 00:05:00,
2013-03-21 17:10:00,69.0,51.7,29.81,South,186,10.4,10.4,54,0.00,CLR,,0.00,327.0,WeatherDisplay:10.37,2013-03-22 00:10:00,
2013-03-21 17:15:00,68.3,52.5,29.81,South,170,11.5,11.5,57,0.00,CLR,,0.00,308.0,WeatherDisplay:10.37,2013-03-22 00:15:00,
2013-03-21 17:20:00,68.1,52.3,29.81,SE,144,11.0,11.0,57,0.00,CLR,,0.00,292.0,WeatherDisplay:10.37,2013-03-22 00:20:00,
2013-03-21 17:25:00,68.4,52.1,29.81,SSE,164,6.0,6.0,56,0.00,CLR,,0.00,274.0,WeatherDisplay:10.37,2013-03-22 00:25:00,
2013-03-21 17:30:00,68.5,52.2,29.81,SW,225,8.1,8.1,56,0.00,CLR,,0.00,257.0,WeatherDisplay:10.37,2013-03-22 00:30:00,
2013-03-21 17:35:00,68.5,51.7,29.81,SSE,155,11.5,11.5,55,0.00,CLR,,0.00,239.0,WeatherDisplay:10.37,2013-03-22 00:35:00,
2013-03-21 17:40:00,68.2,51.9,29.81,SE,145,9.0,9.0,56,0.00,CLR,,0.00,225.0,WeatherDisplay:10.37,2013-03-22 00:40:00,
2013-03-21 17:45:00,68.1,52.3,29.81,SSW,208,10.4,10.4,57,0.00,CLR,,0.00,209.0,WeatherDisplay:10.37,2013-03-22 00:45:00,
2013-03-21 17:50:00,68.1,51.3,29.81,SW,221,6.0,6.0,55,0.00,CLR,,0.00,193.0,WeatherDisplay:10.37,2013-03-22 00:50:00,
2013-03-21 17:55:00,68.3,50.5,29.80,SSW,199,10.4,10.4,53,0.00,CLR,,0.00,174.0,WeatherDisplay:10.37,2013-03-22 00:55:00,
2013-03-21 18:00:00,68.4,50.6,29.80,West,268,10.4,10.4,53,0.00,CLR,,0.00,153.0,WeatherDisplay:10.37,2013-03-22 01:00:00,
2013-03-21 18:05:00,68.4,50.6,29.81,West,259,5.8,5.8,53,0.00,CLR,,0.00,135.0,WeatherDisplay:10.37,2013-03-22 01:05:00,
2013-03-21 18:10:00,68.4,50.6,29.81,SSW,205,9.2,9.2,53,0.00,FEW,,0.00,116.0,WeatherDisplay:10.37,2013-03-22 01:10:00,
2013-03-21 18:15:00,68.2,50.9,29.80,SSW,207,8.1,8.1,54,0.00,FEW,,0.00,97.0,WeatherDisplay:10.37,2013-03-22 01:15:00,
2013-03-21 18:20:00,67.8,51.5,29.80,WSW,246,9.2,9.2,56,0.00,SCT,,0.00,79.0,WeatherDisplay:10.37,2013-03-22 01:20:00,
2013-03-21 18:25:00,67.4,51.6,29.80,SW,224,6.9,6.9,57,0.00,SCT,,0.00,67.0,WeatherDisplay:10.37,2013-03-22 01:25:00,
2013-03-21 18:30:00,67.2,51.4,29.80,West,279,6.0,6.0,57,0.00,SCT,,0.00,54.0,WeatherDisplay:10.37,2013-03-22 01:30:00,
2013-03-21 18:35:00,66.9,51.6,29.80,WSW,257,7.0,7.0,58,0.00,SCT,,0.00,40.0,WeatherDisplay:10.37,2013-03-22 01:35:00,
2013-03-21 18:40:00,66.4,51.2,29.81,West,259,8.1,8.1,58,0.00,SCT,,0.00,30.0,WeatherDisplay:10.37,2013-03-22 01:40:00,
2013-03-21 18:45:00,66.2,51.0,29.80,WSW,254,5.8,5.8,58,0.00,BKN,,0.00,21.0,WeatherDisplay:10.37,2013-03-22 01:45:00,
2013-03-21 18:50:00,66.0,50.8,29.80,WSW,254,6.9,6.9,58,0.00,SCT,,0.00,16.0,WeatherDisplay:10.37,2013-03-22 01:50:00,
2013-03-21 18:55:00,65.7,51.4,29.81,West,281,6.0,6.0,60,0.00,SCT,,0.00,11.0,WeatherDisplay:10.37,2013-03-22 01:55:00,
2013-03-21 19:00:00,65.4,51.6,29.81,West,277,7.0,7.0,61,0.00,FEW,,0.00,7.0,WeatherDisplay:10.37,2013-03-22 02:00:00,
2013-03-21 19:05:00,65.0,52.1,29.81,West,265,5.8,5.8,63,0.00,CLR,,0.00,0.0,WeatherDisplay:10.37,2013-03-22 02:05:00,
2013-03-21 19:10:00,64.8,52.3,29.80,SW,230,6.9,6.9,64,0.00,CLR,,0.00,0.0,WeatherDisplay:10.37,2013-03-22 02:10:00,
2013-03-21 19:15:00,64.5,51.6,29.81,West,260,8.1,8.1,63,0.00,CLR,,0.00,0.0,WeatherDisplay:10.37,2013-03-22 02:15:00,
2013-03-21 19:20:00,64.1,51.2,29.81,West,265,6.9,6.9,63,0.00,CLR,,0.00,0.0,WeatherDisplay:10.37,2013-03-22 02:20:00,
2013-03-21 19:25:00,63.7,51.3,29.81,WSW,254,8.1,8.1,64,0.00,CLR,,0.00,0.0,WeatherDisplay:10.37,2013-03-22 02:25:00,
2013-03-21 19:30:00,63.5,51.5,29.81,WNW,283,6.9,6.9,65,0.00,CLR,,0.00,0.0,WeatherDisplay:10.37,2013-03-22 02:30:00,
2013-03-21 19:35:00,63.4,51.4,29.81,WNW,286,6.9,6.9,65,0.00,CLR,,0.00,0.0,WeatherDisplay:10.37,2013-03-22 02:35:00,
2013-03-21 19:40:00,63.2,51.2,29.81,WSW,254,6.0,6.0,65,0.00,CLR,,0.00,0.0,WeatherDisplay:10.37,2013-03-22 02:40:00,
2013-03-21 19:45:00,63.0,51.0,29.80,WSW,250,4.6,4.6,65,0.00,CLR,,0.00,0.0,WeatherDisplay:10.37,2013-03-22 02:45:00,
2013-03-21 19:50:00,62.8,50.9,29.80,West,259,3.5,3.5,65,0.00,CLR,,0.00,0.0,WeatherDisplay:10.37,2013-03-22 02:50:00,
2013-03-21 19:55:00,62.7,51.2,29.81,West,276,3.5,3.5,66,0.00,CLR,,0.00,0.0,WeatherDisplay:10.37,2013-03-22 02:55:00,
2013-03-21 20:00:00,62.6,51.1,29.81,West,276,3.5,3.5,66,0.00,CLR,,0.00,0.0,WeatherDisplay:10.37,2013-03-22 03:00:00,
2013-03-21 20:05:00,62.6,51.1,29.81,West,276,2.3,2.3,66,0.00,CLR,,0.00,0.0,WeatherDisplay:10.37,2013-03-22 03:05:00,
2013-03-21 20:10:00,62.5,51.0,29.81,West,276,3.5,3.5,66,0.00,CLR,,0.00,0.0,WeatherDisplay:10.37,2013-03-22 03:10:00,
2013-03-21 20:15:00,62.6,51.1,29.81,West,277,3.5,3.5,66,0.00,CLR,,0.00,0.0,WeatherDisplay:10.37,2013-03-22 03:15:00,
2013-03-21 20:20:00,62.5,51.0,29.81,West,279,4.0,4.0,66,0.00,CLR,,0.00,0.0,WeatherDisplay:10.37,2013-03-22 03:20:00,
2013-03-21 20:25:00,62.5,51.0,29.82,West,278,4.0,4.0,66,0.00,CLR,,0.00,0.0,WeatherDisplay:10.37,2013-03-22 03:25:00,
2013-03-21 20:30:00,62.4,50.9,29.82,West,278,2.3,2.3,66,0.00,CLR,,0.00,0.0,WeatherDisplay:10.37,2013-03-22 03:30:00,
2013-03-21 20:35:00,62.3,51.2,29.82,WNW,284,3.5,3.5,67,0.00,CLR,,0.00,0.0,WeatherDisplay:10.37,2013-03-22 03:35:00,
2013-03-21 20:40:00,62.2,51.1,29.82,WNW,292,4.6,4.6,67,0.00,CLR,,0.00,0.0,WeatherDisplay:10.37,2013-03-22 03:40:00,
2013-03-21 20:45:00,62.0,51.3,29.82,WNW,298,3.5,3.5,68,0.00,CLR,,0.00,0.0,WeatherDisplay:10.37,2013-03-22 03:45:00,
2013-03-21 20:50:00,61.8,51.1,29.82,West,267,4.6,4.6,68,0.00,CLR,,0.00,0.0,WeatherDisplay:10.37,2013-03-22 03:50:00,
2013-03-21 20:55:00,61.7,51.0,29.82,West,269,6.0,6.0,68,0.00,CLR,,0.00,0.0,WeatherDisplay:10.37,2013-03-22 03:55:00,
2013-03-21 21:00:00,61.5,51.2,29.82,West,271,3.5,3.5,69,0.00,CLR,,0.00,0.0,WeatherDisplay:10.37,2013-03-22 04:00:00,
2013-03-21 21:06:00,61.4,51.1,29.82,SW,236,3.5,3.5,69,0.00,CLR,,0.00,0.0,WeatherDisplay:10.37,2013-03-22 04:06:00,
2013-03-21 21:11:00,61.3,51.4,29.82,WSW,248,6.0,6.0,70,0.00,CLR,,0.00,0.0,WeatherDisplay:10.37,2013-03-22 04:11:00,
2013-03-21 21:16:00,61.2,51.3,29.82,West,269,5.8,5.8,70,0.00,CLR,,0.00,0.0,WeatherDisplay:10.37,2013-03-22 04:16:00,
2013-03-21 21:22:00,61.1,51.2,29.83,West,260,5.0,5.0,70,0.00,CLR,,0.00,0.0,WeatherDisplay:10.37,2013-03-22 04:22:00,
2013-03-21 21:27:00,60.9,51.4,29.83,WSW,244,6.0,6.0,71,0.00,CLR,,0.00,0.0,WeatherDisplay:10.37,2013-03-22 04:27:00,
2013-03-21 21:32:00,60.7,51.6,29.83,WSW,248,5.0,5.0,72,0.00,CLR,,0.00,0.0,WeatherDisplay:10.37,2013-03-22 04:32:00,
2013-03-21 21:37:00,60.5,51.8,29.83,WSW,254,8.1,8.1,73,0.00,CLR,,0.00,0.0,WeatherDisplay:10.37,2013-03-22 04:37:00,
2013-03-21 21:42:00,60.3,52.0,29.83,West,259,8.1,8.1,74,0.00,CLR,,0.00,0.0,WeatherDisplay:10.37,2013-03-22 04:42:00,
2013-03-21 21:47:00,60.0,51.7,29.83,West,261,5.8,5.8,74,0.00,CLR,,0.00,0.0,WeatherDisplay:10.37,2013-03-22 04:47:00,
2013-03-21 21:52:00,59.9,51.6,29.83,WSW,254,5.0,5.0,74,0.00,CLR,,0.00,0.0,WeatherDisplay:10.37,2013-03-22 04:52:00,
2013-03-21 21:57:00,59.7,51.4,29.83,West,263,6.0,6.0,74,0.00,CLR,,0.00,0.0,WeatherDisplay:10.37,2013-03-22 04:57:00,
2013-03-21 22:02:00,59.4,51.5,29.83,West,265,6.9,6.9,75,0.00,CLR,,0.00,0.0,WeatherDisplay:10.37,2013-03-22 05:02:00,
2013-03-21 22:07:00,59.2,51.3,29.83,WSW,254,4.6,4.6,75,0.00,CLR,,0.00,0.0,WeatherDisplay:10.37,2013-03-22 05:07:00,
2013-03-21 22:12:00,59.1,51.5,29.83,WSW,257,3.5,3.5,76,0.00,CLR,,0.00,0.0,WeatherDisplay:10.37,2013-03-22 05:12:00,
2013-03-21 22:17:00,59.0,51.4,29.83,WSW,243,1.1,1.1,76,0.00,CLR,,0.00,0.0,WeatherDisplay:10.37,2013-03-22 05:17:00,
2013-03-21 22:22:00,58.9,51.7,29.83,West,274,5.8,5.8,77,0.00,CLR,,0.00,0.0,WeatherDisplay:10.37,2013-03-22 05:22:00,
2013-03-21 22:27:00,58.7,51.5,29.83,West,260,5.0,5.0,77,0.00,CLR,,0.00,0.0,WeatherDisplay:10.37,2013-03-22 05:27:00,
2013-03-21 22:32:00,58.7,51.9,29.83,West,265,4.6,4.6,78,0.00,CLR,,0.00,0.0,WeatherDisplay:10.37,2013-03-22 05:32:00,
2013-03-21 22:37:00,58.6,51.8,29.83,West,267,4.0,4.0,78,0.00,CLR,,0.00,0.0,WeatherDisplay:10.37,2013-03-22 05:37:00,
2013-03-21 22:42:00,58.5,51.7,29.83,SW,224,4.0,4.0,78,0.00,CLR,,0.00,0.0,WeatherDisplay:10.37,2013-03-22 05:42:00,
2013-03-21 22:47:00,58.4,51.9,29.83,SSW,211,4.0,4.0,79,0.00,CLR,,0.00,0.0,WeatherDisplay:10.37,2013-03-22 05:47:00,
2013-03-21 22:52:00,58.4,51.9,29.83,SSW,204,3.5,3.5,79,0.00,CLR,,0.00,0.0,WeatherDisplay:10.37,2013-03-22 05:52:00,
2013-03-21 22:57:00,58.3,51.8,29.83,SSW,204,2.3,2.3,79,0.00,CLR,,0.00,0.0,WeatherDisplay:10.37,2013-03-22 05:57:00,
2013-03-21 23:02:00,58.2,52.1,29.83,SW,229,3.5,3.5,80,0.00,CLR,,0.00,0.0,WeatherDisplay:10.37,2013-03-22 06:02:00,
2013-03-21 23:07:00,58.1,52.0,29.83,SSW,210,4.6,4.6,80,0.00,CLR,,0.00,0.0,WeatherDisplay:10.37,2013-03-22 06:07:00,
2013-03-21 23:12:00,58.0,51.9,29.83,SSW,213,3.5,3.5,80,0.00,CLR,,0.00,0.0,WeatherDisplay:10.37,2013-03-22 06:12:00,
2013-03-21 23:17:00,58.0,52.2,29.83,SSW,199,4.6,4.6,81,0.00,CLR,,0.00,0.0,WeatherDisplay:10.37,2013-03-22 06:17:00,
2013-03-21 23:23:00,58.0,52.2,29.83,SSW,202,4.6,4.6,81,0.00,CLR,,0.00,0.0,WeatherDisplay:10.37,2013-03-22 06:23:00,
2013-03-21 23:28:00,57.8,52.0,29.82,SSW,202,2.3,2.3,81,0.00,CLR,,0.00,0.0,WeatherDisplay:10.37,2013-03-22 06:28:00,
2013-03-21 23:33:00,57.7,51.9,29.82,SSW,198,3.5,3.5,81,0.00,CLR,,0.00,0.0,WeatherDisplay:10.37,2013-03-22 06:33:00,
2013-03-21 23:38:00,57.7,51.9,29.83,SSW,198,1.0,1.0,81,0.00,CLR,,0.00,0.0,WeatherDisplay:10.37,2013-03-22 06:38:00,
2013-03-21 23:42:00,57.5,51.7,29.83,SSW,198,2.3,2.3,81,0.00,CLR,,0.00,0.0,WeatherDisplay:10.37,2013-03-22 06:42:00,
2013-03-21 23:48:00,57.5,52.0,29.83,SSW,194,2.0,2.0,82,0.00,CLR,,0.00,0.0,WeatherDisplay:10.37,2013-03-22 06:48:00,
2013-03-21 23:53:00,57.3,52.2,29.83,South,185,2.3,2.3,83,0.00,CLR,,0.00,0.0,WeatherDisplay:10.37,2013-03-22 06:53:00,
2013-03-21 23:58:00,57.2,52.4,29.82,South,183,1.1,1.1,84,0.00,CLR,,0.00,0.0,WeatherDisplay:10.37,2013-03-22 06:58:00,